Location: Newark
(44.3248°N, 23.7839°E)
Time: 08:52:49
(UTC+00:00)

UNISAT 6 - Pass Details

Date: 20 April 2024
Orbit: 593 x 667 km, 97.7° (Epoch: 29 May)

Event Time Altitude Azimuth Distance (km) Brightness Sun altitude
Rises 02:59:12 0° 189° (S) 2,947 ? -6.4°
Reaches altitude 10° 03:01:37 10° 199° (SSW) 2,030 ? -6.0°
Maximum altitude 03:05:35 32° 263° (W) 1,080 ? -5.3°
Drops below altitude 10° 03:09:32 10° 328° (NNW) 2,002 ? -4.7°
Sets 03:11:54 0° 338° (NNW) 2,900 ? -4.3°
